Weather History for Destin, FL

Change the Weather History Date:

Friday, November 29, 2013

  Actual Average Record
Temperature  
Mean Temperature 52 °F -  
Max Temperature 62 °F 64 °F 75 °F (2001)
Min Temperature 41 °F 49 °F 37 °F (2003)
Degree Days  
Heating Degree Days 14    
Growing Degree Days 2 (Base 50)    
Moisture  
Dew Point 32 °F    
Average Humidity 52    
Maximum Humidity 70    
Minimum Humidity 30    
Precipitation  
Precipitation 0.00 in - - ()
Sea Level Pressure  
Sea Level Pressure 30.45 in    
Wind  
Wind Speed 5 mph (NE)    
Max Wind Speed 9 mph    
Max Gust Speed -    
Visibility 10 miles    
Events      
Averages and records for this station are not official NWS values.
T = Trace of Precipitation, MM = Missing Value Source: NWS Daily Summary

Daily Weather History Graph

Daily Weather History Graph

Search for Another Location

Airport:

Trip Planner

Search our weather history database for the weather conditions in past years. The results will help you decide how hot, cold, wet, or windy it might be!

Date:

Astronomy

Nov. 29, 2013 Rise Set
Actual Time 6:23 AM CST 4:44 PM CST
Civil Twilight 5:57 AM CST 5:10 PM CST
Nautical Twilight 5:27 AM CST 5:40 PM CST
Astronomical Twilight 4:58 AM CST 6:09 PM CST
Moon 2:42 AM CST (11/29) 2:17 PM CST (11/29)
Length of Visible Light 11h 13m
Length of Day
10h 21m
Waning Crescent, 14% of the Moon is Illuminated
Nov 29
Waning Crescent
Dec 2
New
Dec 9
First Quarter
Dec 17
Full
Dec 25
Last Quarter

Hourly Weather History & Observations

Time (CST) Temp. Windchill Dew Point Humidity Pressure Visibility Wind Dir Wind Speed Gust Speed Precip Events Conditions
12:53 AM 43.0 °F - 32.0 °F 65% 30.45 in 10.0 mi Calm Calm - N/A   Clear
1:53 AM 42.1 °F 39.2 °F 30.9 °F 65% 30.45 in 10.0 mi NE 4.6 mph - N/A   Clear
2:53 AM 42.1 °F 39.2 °F 32.0 °F 67% 30.44 in 10.0 mi NE 4.6 mph - N/A   Clear
3:53 AM 41.0 °F 39.0 °F 32.0 °F 70% 30.45 in 10.0 mi NE 3.5 mph - N/A   Clear
4:53 AM 41.0 °F 39.0 °F 32.0 °F 70% 30.45 in 10.0 mi NE 3.5 mph - N/A   Clear
5:53 AM 41.0 °F 39.0 °F 30.9 °F 67% 30.47 in 10.0 mi NNE 3.5 mph - N/A   Clear
6:53 AM 41.0 °F 36.4 °F 32.0 °F 70% 30.50 in 10.0 mi NNE 6.9 mph - N/A   Clear
7:53 AM 45.0 °F 41.2 °F 33.1 °F 63% 30.51 in 10.0 mi NE 6.9 mph - N/A   Clear
8:53 AM 48.0 °F - 32.0 °F 54% 30.53 in 10.0 mi ENE 8.1 mph - N/A   Clear
9:53 AM 52.0 °F - 30.0 °F 43% 30.51 in 10.0 mi NE 9.2 mph - N/A   Clear
10:53 AM 54.0 °F - 30.0 °F 40% 30.49 in 10.0 mi NE 6.9 mph - N/A   Clear
11:53 AM 57.9 °F - 30.0 °F 35% 30.45 in 10.0 mi NE 6.9 mph - N/A   Clear
12:53 PM 59.0 °F - 28.9 °F 32% 30.42 in 10.0 mi Variable 6.9 mph - N/A   Clear
1:53 PM 61.0 °F - 30.9 °F 32% 30.41 in 10.0 mi NNE 6.9 mph - N/A   Clear
2:53 PM 62.1 °F - 30.0 °F 30% 30.40 in 10.0 mi North 6.9 mph - N/A   Clear
3:53 PM 61.0 °F - 30.0 °F 31% 30.41 in 10.0 mi NNE 5.8 mph - N/A   Clear
4:53 PM 55.9 °F - 33.1 °F 42% 30.41 in 10.0 mi NNE 4.6 mph - N/A   Clear
5:53 PM 54.0 °F - 36.0 °F 51% 30.43 in 10.0 mi NNE 4.6 mph - N/A   Clear
6:53 PM 54.0 °F - 34.0 °F 47% 30.43 in 10.0 mi NE 4.6 mph - N/A   Clear
7:53 PM 53.1 °F - 34.0 °F 48% 30.44 in 10.0 mi NNE 5.8 mph - N/A   Clear
8:53 PM 51.1 °F - 35.1 °F 54% 30.44 in 10.0 mi NNE 4.6 mph - N/A   Clear
9:53 PM 46.9 °F - 36.0 °F 66% 30.43 in 10.0 mi NE 5.8 mph - N/A   Clear
10:53 PM 51.1 °F - 34.0 °F 52% 30.42 in 10.0 mi NE 6.9 mph - N/A   Clear
11:53 PM 51.1 °F - 35.1 °F 54% 30.41 in 10.0 mi ENE 6.9 mph - N/A   Clear